Probability
2 2 1 0 0 0 0 0 0 0 0 0 0 0 0 0 0 0 0 0 0 0 0 0 0 0 0 0 0 0 0 0 0 0 0 0 0 0 0 0 0 0 0
2 2 1 0 0 0 0 0 0 0 0 0 0 0 0 0 0 0 0 0 0 0 0 0 0 0 0 0 0 0 0 0 0 0 0 0 0 0 0 0 0 0 0
2 2 1 0 0 0 0 0 0 0 0 0 0 0 0 0 0 0 0 0 0 0 0 0 0 0 0 0 0 0 0 0 0 0 0 0 0 0 0 0 0 0 0
4 3 2 1 0 0 0 0 0 0 0 0 0 0 0 0 0 0 0 0 0 0 0 0 0 0 0 0 0 0 0 0 0 0 0 0 0 0 0 0 0 0 0
4 5 4 3 1 0 0 0 0 0 0 0 0 0 0 0 0 0 0 0 0 0 0 0 0 0 0 0 0 0 0 0 0 0 0 0 0 0 0 0 0 0 0
4 5 5 3 2 1 1 0 0 0 0 0 0 0 0 0 0 0 0 0 0 0 0 0 0 0 0 0 0 0 0 0 0 0 0 0 0 0 0 0 0 0 0
2 4 5 4 3 3 2 1 0 0 0 0 0 0 0 0 0 0 0 0 0 0 0 0 0 0 0 0 0 0 0 0 0 0 0 0 0 0 0 0 0 0 0
1 3 4 5 4 3 3 2 1 1 0 0 0 0 0 0 0 0 0 0 0 0 0 0 0 0 0 0 0 0 0 0 0 0 0 0 0 0 0 0 0 0 0
1 2 4 6 6 4 3 3 3 2 1 1 0 0 0 0 0 0 0 0 0 0 0 0 0 0 0 0 0 0 0 0 0 0 0 0 0 0 0 0 0 0 0
1 2 5 7 7 5 3 3 3 3 3 2 1 0 0 0 0 0 0 0 0 0 0 0 0 0 0 0 0 0 0 0 0 0 0 0 0 0 0 0 0 0 0
2 3 5 8 8 5 3 2 2 3 3 3 2 0 0 0 0 0 0 0 0 0 0 0 0 0 0 0 0 0 0 0 0 0 0 0 0 0 0 0 0 0 0
3 3 4 7 8 5 3 2 1 2 2 2 1 0 0 0 0 0 0 0 0 0 0 0 0 0 0 0 0 0 0 0 0 0 0 0 0 0 0 0 0 0 0
3 3 4 6 7 4 2 1 1 1 1 1 0 0 0 0 0 0 0 0 0 0 0 0 0 0 0 0 0 0 0 0 0 0 0 0 0 0 0 0 0 0 0
2 2 3 5 5 3 1 0 0 0 0 0 0 0 0 0 0 0 0 0 0 0 0 0 0 0 0 0 0 0 0 0 0 0 0 0 0 0 0 0 0 0 0
1 1 2 3 4 3 2 1 0 0 0 0 0 1 1 0 0 0 0 0 0 0 0 0 0 0 0 0 0 0 0 0 0 0 0 0 0 0 0 0 0 0 0
0 0 1 2 3 3 2 1 0 0 0 0 1 2 2 1 0 0 0 0 0 0 0 0 0 0 0 0 0 0 0 0 0 0 0 0 0 0 0 0 0 0 0
1 0 1 2 3 3 3 1 0 0 0 0 1 2 3 2 1 0 0 0 0 0 0 0 0 0 0 0 0 0 0 0 0 0 0 0 0 0 0 0 0 0 0
2 1 0 1 2 3 3 2 1 0 0 0 0 1 2 2 1 0 0 0 0 0 0 0 0 0 0 0 0 0 0 0 0 0 0 0 0 0 0 0 0 0 0
2 1 0 0 1 3 3 2 1 0 0 0 0 0 1 1 0 0 0 0 0 0 0 0 0 0 0 0 0 0 0 0 0 0 0 0 0 0 0 0 0 0 0
3 2 1 0 1 2 3 2 1 0 0 0 0 0 0 0 0 0 0 0 0 0 0 0 0 0 0 0 0 0 0 0 0 0 0 0 0 0 0 0 0 0 0
3 2 1 0 0 1 2 1 0 0 0 0 0 0 0 0 0 0 0 0 0 0 0 0 0 0 0 0 0 0 0 0 0 0 0 0 0 0 0 0 0 0 0
3 2 1 0 0 0 0 0 0 0 0 0 0 0 0 0 0 0 0 0 0 0 0 0 0 0 0 0 0 0 0 0 0 0 0 0 0 0 0 0 0 0 0
2 2 1 0 0 0 0 0 0 0 0 0 0 0 0 0 0 0 0 0 0 0 0 0 0 0 0 0 0 0 0 0 0 0 0 0 0 0 0 0 0 0 0
1 1 0 0 0 0 0 0 0 0 0 0 0 0 0 0 0 0 0 0 0 0 0 0 0 0 0 0 0 0 0 0 0 0 0 0 0 0 0 0 0 0 0
0 0 0 0 0 0 0 0 0 0 0 0 0 0 0 0 0 0 0 0 0 0 0 0 0 0 0 0 0 0 0 0 0 0 0 0 0 0 0 0 0 0 0
0 0 0 0 0 0 0 0 0 0 0 0 0 0 0 0 0 0 0 0 0 0 0 0 0 0 0 0 0 0 0 0 0 0 0 0 0 0 0 0 0 0 0
Wind_Speed
7 7 7 7 7 6 7 6 6 4 4 3 3 3 2 1 2 2 3 3 3 4 4 3 3 3 3 3 3 2 3 3 2 3 3 4 4 4 3 3 2 3 2
7 7 7 7 7 7 7 6 6 5 4 3 3 2 2 1 1 1 3 3 4 3 3 4 3 3 3 4 4 3 2 2 3 2 3 3 5 4 4 3 3 3 2
11 10 9 8 8 8 8 7 6 6 5 4 3 3 3 3 3 3 2 2 3 4 3 3 3 3 3 2 3 3 3 2 3 2 3 3 0 2 4 4 4 4 3
10 10 10 9 9 8 7 7 7 6 5 5 5 5 3 2 1 1 1 2 3 4 4 3 3 3 3 2 2 3 2 3 2 2 2 2 3 2 1 3 3 4 3
11 11 11 10 9 9 8 8 7 6 5 5 6 6 4 2 1 1 2 2 3 3 4 4 3 3 2 3 3 3 3 2 2 1 1 2 2 2 2 1 3 3 3
11 11 10 9 8 7 7 7 7 5 5 5 6 6 5 4 3 2 2 1 1 2 3 3 3 3 3 3 3 3 4 3 3 3 2 2 2 1 2 1 1 2 3
10 11 11 10 9 9 8 8 8 6 5 6 5 5 5 5 4 3 3 2 1 1 1 2 2 2 2 3 3 4 4 4 4 3 2 2 1 1 2 2 1 1 2
10 11 12 11 11 10 9 9 8 6 6 6 5 4 4 3 3 3 3 3 2 1 1 2 3 3 3 4 4 4 3 4 4 5 3 3 2 2 2 2 2 2 2
11 11 11 11 11 10 10 10 9 7 6 6 5 4 4 4 3 3 3 2 2 2 3 3 4 4 4 4 4 4 3 4 4 4 4 3 2 2 2 2 2 3 1
10 10 10 10 10 10 8 8 8 8 7 6 5 5 4 4 4 4 4 4 3 3 4 4 4 4 4 4 5 4 4 5 4 3 4 4 3 3 3 2 2 2 2
11 10 9 9 9 8 8 8 8 7 6 6 5 5 4 4 4 4 4 4 3 4 4 4 4 4 4 4 5 4 4 5 4 4 5 4 4 3 3 3 3 2 2
9 9 9 8 8 9 9 9 8 8 7 6 6 5 5 5 4 4 4 4 5 4 4 4 4 4 4 4 4 4 4 5 4 4 4 4 4 4 3 3 3 2 2
8 8 8 9 9 9 9 9 8 8 7 6 6 5 5 5 5 4 4 5 5 5 4 5 5 4 3 4 4 4 4 4 3 3 4 3 4 4 3 3 3 3 3
9 10 9 9 9 9 9 9 8 8 8 7 7 6 6 6 5 5 5 5 5 5 5 4 4 3 3 4 4 5 4 4 3 3 3 3 3 3 2 3 3 3 3
10 11 11 10 9 9 8 8 8 8 8 8 7 6 6 5 6 5 5 5 5 5 4 4 4 3 3 3 4 4 5 4 4 4 3 3 4 5 4 3 2 3 2
11 11 11 11 11 11 10 9 8 8 8 8 7 7 6 6 6 6 5 5 5 4 5 4 4 4 3 6 7 6 4 4 4 3 3 3 4 6 7 7 5 4 3
10 11 11 11 11 11 11 11 9 8 8 8 8 7 7 7 6 7 6 5 5 5 5 4 4 4 3 7 8 8 5 4 3 3 2 3 4 4 3 5 7 6 5
10 11 10 10 9 9 9 9 8 8 8 8 8 8 8 7 7 6 6 4 4 4 4 4 3 3 3 6 7 8 5 4 3 2 2 2 2 2 2 3 4 3 3
9 9 9 10 10 10 10 10 9 8 8 8 8 8 8 8 7 7 6 5 4 4 3 3 4 3 2 5 7 8 4 3 2 1 1 1 1 3 4 3 2 3 3
6 7 7 8 9 9 10 11 10 9 9 9 8 8 8 9 8 7 6 4 5 4 4 3 3 3 2 4 6 7 3 3 1 1 1 2 2 3 3 2 1 2 3
5 7 8 9 10 10 11 11 10 10 9 8 8 8 8 8 7 6 5 5 5 5 4 3 2 2 2 3 5 6 3 3 2 0 1 1 3 3 3 1 1 1 2
5 6 7 7 7 10 12 11 10 9 8 8 8 7 7 7 7 7 5 5 6 5 4 3 1 0 0 1 3 5 4 4 2 1 1 1 3 3 4 2 2 3 3
5 5 7 7 6 8 11 11 9 8 9 9 8 7 7 6 6 7 6 5 5 5 4 3 2 1 1 1 2 3 3 3 2 1 2 1 2 3 3 4 4 3 1
5 5 7 8 7 7 8 9 9 10 10 10 8 7 7 6 5 5 5 5 5 5 4 4 3 2 1 1 1 1 1 2 1 0 1 2 2 2 2 3 3 1 1
4 6 7 8 7 7 6 7 9 10 9 9 7 6 6 6 5 4 4 6 6 7 7 6 5 5 4 5 6 4 3 2 2 1 1 1 1 2 2 2 2 2 2
4 5 5 6 6 7 7 7 8 10 10 8 7 6 5 5 5 4 2 1 3 5 7 7 6 5 6 6 6 6 5 4 4 3 1 1 1 2 2 2 2 2 2
Wind_Direction
181 167 158 148 141 140 142 142 133 129 120 108 102 96 81 50 37 46 57 61 63 67 74 70 57 55 61 52 49 55 42 26 33 57 28 9 19 30 23 21 31 30 31
169 169 163 157 154 155 152 142 142 142 137 131 131 132 128 104 83 44 41 49 61 61 74 79 72 65 65 51 47 58 55 24 30 85 72 22 3 3 10 10 25 20 21
174 173 170 169 162 162 162 156 154 146 140 129 109 90 65 44 38 36 25 22 56 64 67 76 77 70 74 69 58 66 77 51 17 54 118 114 136 334 349 8 19 15 22
178 174 173 172 172 173 164 155 155 148 144 135 129 131 131 136 175 150 54 32 49 63 64 70 72 69 65 64 56 69 78 87 44 17 42 115 150 126 6 346 354 7 21
180 178 176 173 171 166 158 155 150 146 144 141 144 140 138 149 140 94 76 49 36 50 62 70 73 69 63 62 56 60 63 75 83 56 47 58 57 78 115 21 340 357 360
180 177 173 167 164 158 151 150 146 147 146 141 143 146 146 140 128 119 106 68 34 32 47 66 70 70 67 65 63 68 68 68 72 61 57 76 86 84 105 118 344 350 335
176 171 168 167 165 160 157 154 150 151 151 145 151 156 153 147 148 149 147 135 101 57 47 63 70 71 75 71 70 71 64 63 69 62 55 55 58 106 119 114 94 19 334
175 175 175 170 168 165 160 158 157 156 155 155 163 159 153 145 148 153 153 156 154 150 110 88 81 75 73 72 71 70 67 66 65 60 58 56 35 51 84 124 124 64 7
176 176 175 171 168 166 166 166 161 155 158 161 159 151 148 141 142 144 139 142 136 119 103 94 86 75 71 70 75 70 63 69 64 60 59 55 34 43 48 69 110 128 96
177 174 175 172 169 168 167 163 158 157 161 160 162 151 148 145 135 123 124 126 121 107 104 92 85 78 70 69 73 70 65 72 60 59 61 48 32 37 38 51 54 88 131
178 176 176 174 166 160 159 161 159 153 157 158 153 142 143 135 128 125 130 127 117 112 109 104 95 86 75 72 76 72 73 75 62 53 62 49 40 45 35 38 46 50 88
176 173 169 164 162 162 164 166 165 162 164 160 149 145 139 129 126 128 128 121 116 112 113 107 101 92 82 78 82 81 77 78 71 59 59 43 46 45 37 43 44 42 54
166 165 164 168 170 170 169 169 167 165 159 150 142 138 137 136 137 134 124 118 116 110 105 103 104 99 92 83 83 90 87 82 77 71 70 52 58 52 42 50 47 37 43
171 168 171 175 175 173 171 169 169 164 155 148 146 148 152 149 144 136 125 121 118 113 111 105 106 107 100 94 91 91 88 80 68 65 68 62 71 77 69 60 50 50 48
174 176 177 176 174 171 170 168 167 163 155 150 152 157 153 141 133 129 125 120 115 115 116 107 95 95 100 108 108 101 96 86 67 50 47 51 61 67 72 75 71 68 59
183 182 178 172 174 174 171 167 166 165 156 155 159 154 145 139 137 135 127 120 116 110 107 106 104 93 95 112 112 111 100 91 82 61 39 42 46 50 53 58 65 77 88
185 181 181 178 177 175 170 169 169 160 154 156 156 154 149 146 146 140 129 129 128 118 113 114 109 103 107 111 107 106 104 98 92 84 61 47 42 44 45 44 44 44 54
184 184 181 177 174 168 163 160 155 155 155 156 158 158 152 150 147 140 140 144 138 133 130 129 122 111 111 113 109 107 95 92 90 98 99 80 26 31 51 51 39 27 20
186 183 179 172 168 164 159 151 154 156 158 162 166 165 157 153 151 151 155 153 141 136 134 136 128 119 118 117 115 109 97 89 66 59 79 81 53 30 50 65 45 12 349
171 168 163 157 161 163 154 153 160 161 169 171 168 164 159 157 159 160 156 149 142 140 136 125 127 130 135 129 125 119 113 102 75 31 16 26 29 23 43 80 77 12 328
159 156 155 162 169 162 157 161 165 175 175 163 157 159 159 159 156 150 148 143 134 126 125 125 119 127 141 140 132 132 129 142 132 83 335 324 358 14 24 48 139 279 319
142 148 152 159 162 162 161 164 175 174 155 150 153 160 158 158 151 144 144 141 137 133 135 128 116 60 204 167 157 149 148 145 145 192 249 286 348 14 16 15 349 346 2
149 148 151 150 154 163 163 168 172 155 148 150 156 159 153 150 150 150 150 147 148 150 158 157 169 205 250 236 182 170 167 158 159 207 236 315 2 5 360 358 357 358 15
151 145 142 148 158 164 164 164 158 154 151 155 159 157 152 149 150 153 158 160 166 167 172 177 184 193 209 227 220 203 186 170 161 172 13 15 17 7 336 344 346 335 285
148 145 152 158 163 159 153 151 154 152 151 154 157 157 156 156 156 161 175 179 191 186 181 188 185 183 206 224 203 183 187 188 187 143 59 26 7 356 341 334 325 322 332
140 141 145 151 156 153 151 152 155 154 151 154 159 161 160 160 161 158 152 194 189 194 193 190 185 202 209 203 199 198 194 189 170 133 149 241 255 260 272 286 299 299 291